Time,TemperatureF,DewpointF,PressureIn,WindDirection,WindDirectionDegrees,WindSpeedMPH,WindSpeedGustMPH,Humidity,HourlyPrecipIn,Conditions,Clouds,dailyrainin,SoftwareType,DateUTC
2013-01-12 00:04:00,44.5,44.0,30.32,South,172,0.0,-999.0,97,-99.99,,,0.22,weatherlink.com 1.10,2013-01-12 05:04:00,
2013-01-12 00:19:00,44.6,44.0,30.32,North,360,0.0,-999.0,97,-99.99,,,0.22,weatherlink.com 1.10,2013-01-12 05:19:00,
2013-01-12 00:34:00,44.6,44.0,30.31,North,360,0.0,-999.0,97,-99.99,,,0.22,weatherlink.com 1.10,2013-01-12 05:34:00,
2013-01-12 00:49:00,44.5,44.0,30.30,North,360,0.0,-999.0,97,-99.99,,,0.22,weatherlink.com 1.10,2013-01-12 05:49:00,
2013-01-12 01:04:00,44.2,43.0,30.30,North,360,0.0,-999.0,97,-99.99,,,0.22,weatherlink.com 1.10,2013-01-12 06:04:00,
2013-01-12 01:19:00,43.7,43.0,30.30,North,360,0.0,-999.0,97,-99.99,,,0.22,weatherlink.com 1.10,2013-01-12 06:19:00,
2013-01-12 01:34:00,43.5,43.0,30.30,North,360,0.0,-999.0,97,-99.99,,,0.22,weatherlink.com 1.10,2013-01-12 06:34:00,
2013-01-12 01:49:00,43.6,43.0,30.31,North,360,0.0,-999.0,97,-99.99,,,0.00,weatherlink.com 1.10,2013-01-12 06:49:00,
2013-01-12 02:04:00,43.7,43.0,30.31,North,360,0.0,-999.0,97,-99.99,,,0.00,weatherlink.com 1.10,2013-01-12 07:04:00,
2013-01-12 02:19:00,43.8,43.0,30.31,North,360,0.0,-999.0,97,-99.99,,,0.00,weatherlink.com 1.10,2013-01-12 07:19:00,
2013-01-12 02:34:00,43.8,43.0,30.31,North,360,0.0,-999.0,97,-99.99,,,0.00,weatherlink.com 1.10,2013-01-12 07:34:00,
2013-01-12 02:49:00,43.7,43.0,30.31,North,360,0.0,-999.0,97,-99.99,,,0.00,weatherlink.com 1.10,2013-01-12 07:49:00,
2013-01-12 03:04:00,43.4,43.0,30.30,North,360,0.0,-999.0,97,-99.99,,,0.00,weatherlink.com 1.10,2013-01-12 08:04:00,
2013-01-12 03:19:00,43.4,43.0,30.30,North,360,0.0,-999.0,97,-99.99,,,0.00,weatherlink.com 1.10,2013-01-12 08:19:00,
2013-01-12 03:34:00,43.4,43.0,30.29,North,360,0.0,-999.0,97,-99.99,,,0.00,weatherlink.com 1.10,2013-01-12 08:34:00,
2013-01-12 03:50:00,43.5,43.0,30.29,North,360,0.0,-999.0,97,-99.99,,,0.00,weatherlink.com 1.10,2013-01-12 08:50:00,
2013-01-12 04:05:00,43.7,43.0,30.29,North,360,0.0,-999.0,97,-99.99,,,0.00,weatherlink.com 1.10,2013-01-12 09:05:00,
2013-01-12 04:20:00,43.9,43.0,30.29,North,360,0.0,-999.0,97,-99.99,,,0.00,weatherlink.com 1.10,2013-01-12 09:20:00,
2013-01-12 04:35:00,44.0,43.0,30.28,North,360,0.0,-999.0,97,-99.99,,,0.00,weatherlink.com 1.10,2013-01-12 09:35:00,
2013-01-12 04:50:00,44.2,43.0,30.28,North,360,0.0,-999.0,97,-99.99,,,0.00,weatherlink.com 1.10,2013-01-12 09:50:00,
2013-01-12 05:05:00,44.4,44.0,30.29,North,360,0.0,-999.0,97,-99.99,,,0.00,weatherlink.com 1.10,2013-01-12 10:05:00,
2013-01-12 05:20:00,44.5,44.0,30.29,North,360,0.0,-999.0,97,-99.99,,,0.00,weatherlink.com 1.10,2013-01-12 10:20:00,
2013-01-12 05:35:00,44.5,44.0,30.29,North,360,0.0,-999.0,97,-99.99,,,0.00,weatherlink.com 1.10,2013-01-12 10:35:00,
2013-01-12 05:50:00,44.6,44.0,30.29,North,360,0.0,-999.0,97,-99.99,,,0.00,weatherlink.com 1.10,2013-01-12 10:50:00,
2013-01-12 06:05:00,44.6,44.0,30.29,North,360,0.0,-999.0,97,-99.99,,,0.00,weatherlink.com 1.10,2013-01-12 11:05:00,
2013-01-12 06:20:00,44.6,44.0,30.29,North,360,0.0,-999.0,97,-99.99,,,0.00,weatherlink.com 1.10,2013-01-12 11:20:00,
2013-01-12 06:35:00,44.6,44.0,30.31,North,360,0.0,-999.0,97,-99.99,,,0.00,weatherlink.com 1.10,2013-01-12 11:35:00,
2013-01-12 06:50:00,44.6,44.0,30.31,North,360,0.0,-999.0,97,-99.99,,,0.00,weatherlink.com 1.10,2013-01-12 11:50:00,
2013-01-12 07:05:00,44.7,44.0,30.31,North,360,0.0,-999.0,97,-99.99,,,0.00,weatherlink.com 1.10,2013-01-12 12:05:00,
2013-01-12 07:20:00,44.8,44.0,30.31,North,360,0.0,-999.0,97,-99.99,,,0.00,weatherlink.com 1.10,2013-01-12 12:20:00,
2013-01-12 07:35:00,44.8,44.0,30.32,North,360,2.0,-999.0,97,-99.99,,,0.00,weatherlink.com 1.10,2013-01-12 12:35:00,
2013-01-12 07:50:00,44.5,44.0,30.32,North,360,0.0,-999.0,97,-99.99,,,0.00,weatherlink.com 1.10,2013-01-12 12:50:00,
2013-01-12 08:05:00,44.3,44.0,30.32,North,360,0.0,-999.0,97,-99.99,,,0.00,weatherlink.com 1.10,2013-01-12 13:05:00,
2013-01-12 08:20:00,44.3,44.0,30.33,North,360,0.0,-999.0,97,-99.99,,,0.00,weatherlink.com 1.10,2013-01-12 13:20:00,
2013-01-12 08:35:00,44.3,44.0,30.33,North,360,0.0,-999.0,97,-99.99,,,0.00,weatherlink.com 1.10,2013-01-12 13:35:00,
2013-01-12 08:50:00,44.8,44.0,30.33,North,360,0.0,-999.0,98,-99.99,,,0.00,weatherlink.com 1.10,2013-01-12 13:50:00,
2013-01-12 09:05:00,45.5,45.0,30.32,North,360,0.0,-999.0,98,-99.99,,,0.00,weatherlink.com 1.10,2013-01-12 14:05:00,
2013-01-12 09:20:00,46.8,46.0,30.32,North,360,0.0,-999.0,98,-99.99,,,0.00,weatherlink.com 1.10,2013-01-12 14:20:00,
2013-01-12 09:35:00,49.6,49.0,30.32,North,360,0.0,-999.0,98,-99.99,,,0.00,weatherlink.com 1.10,2013-01-12 14:35:00,
2013-01-12 09:50:00,52.2,52.0,30.32,North,360,0.0,-999.0,98,-99.99,,,0.00,weatherlink.com 1.10,2013-01-12 14:50:00,
2013-01-12 10:05:00,53.5,53.0,30.33,SSE,163,0.0,-999.0,98,-99.99,,,0.00,weatherlink.com 1.10,2013-01-12 15:05:00,
2013-01-12 10:20:00,55.3,54.0,30.32,SSE,163,0.0,-999.0,96,-99.99,,,0.00,weatherlink.com 1.10,2013-01-12 15:20:00,
2013-01-12 10:35:00,57.1,55.0,30.32,SSE,163,2.0,-999.0,94,-99.99,,,0.00,weatherlink.com 1.10,2013-01-12 15:35:00,
2013-01-12 10:50:00,56.9,55.0,30.32,SSE,163,0.0,-999.0,92,-99.99,,,0.00,weatherlink.com 1.10,2013-01-12 15:50:00,
2013-01-12 11:05:00,57.3,55.0,30.32,SSE,163,0.0,-999.0,92,-99.99,,,0.00,weatherlink.com 1.10,2013-01-12 16:05:00,
2013-01-12 11:20:00,58.3,56.0,30.32,SSE,163,0.0,-999.0,91,-99.99,,,0.00,weatherlink.com 1.10,2013-01-12 16:20:00,
2013-01-12 11:35:00,59.3,56.0,30.31,SSE,163,0.0,-999.0,90,-99.99,,,0.00,weatherlink.com 1.10,2013-01-12 16:35:00,
2013-01-12 11:51:00,60.7,58.0,30.30,SSE,163,0.0,-999.0,90,-99.99,,,0.00,weatherlink.com 1.10,2013-01-12 16:51:00,
2013-01-12 12:06:00,61.5,58.0,30.29,SSE,163,0.0,-999.0,87,-99.99,,,0.00,weatherlink.com 1.10,2013-01-12 17:06:00,
2013-01-12 12:21:00,61.7,58.0,30.29,SSE,163,0.0,-999.0,87,-99.99,,,0.00,weatherlink.com 1.10,2013-01-12 17:21:00,
2013-01-12 12:36:00,61.9,58.0,30.29,SSE,163,0.0,-999.0,87,-99.99,,,0.00,weatherlink.com 1.10,2013-01-12 17:36:00,
2013-01-12 12:51:00,62.1,59.0,30.28,SSE,167,1.0,-999.0,88,-99.99,,,0.00,weatherlink.com 1.10,2013-01-12 17:51:00,
2013-01-12 13:06:00,62.4,59.0,30.28,SSE,157,0.0,-999.0,87,-99.99,,,0.00,weatherlink.com 1.10,2013-01-12 18:06:00,
2013-01-12 13:21:00,62.9,59.0,30.27,SSE,168,0.0,-999.0,87,-99.99,,,0.00,weatherlink.com 1.10,2013-01-12 18:21:00,
2013-01-12 13:36:00,62.4,59.0,30.27,SSE,168,0.0,-999.0,87,-99.99,,,0.00,weatherlink.com 1.10,2013-01-12 18:36:00,
2013-01-12 13:51:00,62.3,58.0,30.27,SSE,168,0.0,-999.0,87,-99.99,,,0.00,weatherlink.com 1.10,2013-01-12 18:51:00,
2013-01-12 14:06:00,62.9,59.0,30.26,SSE,168,0.0,-999.0,87,-99.99,,,0.00,weatherlink.com 1.10,2013-01-12 19:06:00,
2013-01-12 14:21:00,63.5,60.0,30.26,SSE,168,0.0,-999.0,87,-99.99,,,0.00,weatherlink.com 1.10,2013-01-12 19:21:00,
2013-01-12 14:36:00,64.1,60.0,30.27,South,173,0.0,-999.0,85,-99.99,,,0.00,weatherlink.com 1.10,2013-01-12 19:36:00,
2013-01-12 14:51:00,64.6,60.0,30.27,South,173,0.0,-999.0,84,-99.99,,,0.00,weatherlink.com 1.10,2013-01-12 19:51:00,
2013-01-12 15:06:00,65.6,60.0,30.27,South,173,0.0,-999.0,83,-99.99,,,0.00,weatherlink.com 1.10,2013-01-12 20:06:00,
2013-01-12 15:21:00,66.8,60.0,30.27,SSE,154,0.0,-999.0,80,-99.99,,,0.00,weatherlink.com 1.10,2013-01-12 20:21:00,
2013-01-12 15:36:00,66.8,60.0,30.27,SSE,165,0.0,-999.0,80,-99.99,,,0.00,weatherlink.com 1.10,2013-01-12 20:36:00,
2013-01-12 15:51:00,66.1,61.0,30.26,SSE,165,0.0,-999.0,82,-99.99,,,0.00,weatherlink.com 1.10,2013-01-12 20:51:00,
2013-01-12 16:06:00,65.8,61.0,30.26,SSE,165,0.0,-999.0,83,-99.99,,,0.00,weatherlink.com 1.10,2013-01-12 21:06:00,
2013-01-12 16:21:00,65.8,61.0,30.26,SSE,165,0.0,-999.0,84,-99.99,,,0.00,weatherlink.com 1.10,2013-01-12 21:21:00,
2013-01-12 16:36:00,65.6,60.0,30.26,SSE,165,0.0,-999.0,83,-99.99,,,0.00,weatherlink.com 1.10,2013-01-12 21:36:00,
2013-01-12 16:51:00,64.9,59.0,30.26,SSE,165,0.0,-999.0,82,-99.99,,,0.00,weatherlink.com 1.10,2013-01-12 21:51:00,
2013-01-12 17:06:00,62.9,58.0,30.26,SSW,192,0.0,-999.0,85,-99.99,,,0.00,weatherlink.com 1.10,2013-01-12 22:06:00,
2013-01-12 17:21:00,61.8,57.0,30.27,SSW,192,0.0,-999.0,85,-99.99,,,0.00,weatherlink.com 1.10,2013-01-12 22:21:00,
2013-01-12 17:36:00,60.7,56.0,30.26,SSW,192,0.0,-999.0,85,-99.99,,,0.00,weatherlink.com 1.10,2013-01-12 22:36:00,
2013-01-12 17:51:00,59.5,55.0,30.27,SSW,192,0.0,-999.0,86,-99.99,,,0.00,weatherlink.com 1.10,2013-01-12 22:51:00,
2013-01-12 18:06:00,58.6,55.0,30.26,SSW,192,0.0,-999.0,89,-99.99,,,0.00,weatherlink.com 1.10,2013-01-12 23:06:00,
2013-01-12 18:21:00,57.6,55.0,30.26,SSW,192,0.0,-999.0,90,-99.99,,,0.00,weatherlink.com 1.10,2013-01-12 23:21:00,
2013-01-12 18:36:00,56.4,54.0,30.26,SSW,192,0.0,-999.0,91,-99.99,,,0.00,weatherlink.com 1.10,2013-01-12 23:36:00,
2013-01-12 18:51:00,55.5,53.0,30.26,SSW,192,0.0,-999.0,92,-99.99,,,0.00,weatherlink.com 1.10,2013-01-12 23:51:00,
2013-01-12 19:06:00,54.8,53.0,30.26,SSW,192,0.0,-999.0,92,-99.99,,,0.00,weatherlink.com 1.10,2013-01-13 00:06:00,
2013-01-12 19:21:00,54.1,52.0,30.27,SSW,192,0.0,-999.0,92,-99.99,,,0.00,weatherlink.com 1.10,2013-01-13 00:21:00,
2013-01-12 19:36:00,53.5,52.0,30.26,SSW,192,0.0,-999.0,93,-99.99,,,0.00,weatherlink.com 1.10,2013-01-13 00:36:00,
2013-01-12 19:51:00,53.0,51.0,30.27,SSW,192,0.0,-999.0,93,-99.99,,,0.00,weatherlink.com 1.10,2013-01-13 00:51:00,
2013-01-12 20:06:00,52.5,51.0,30.26,SSW,192,0.0,-999.0,94,-99.99,,,0.00,weatherlink.com 1.10,2013-01-13 01:06:00,
2013-01-12 20:21:00,52.3,51.0,30.26,SSW,193,0.0,-999.0,94,-99.99,,,0.00,weatherlink.com 1.10,2013-01-13 01:21:00,
2013-01-12 20:36:00,51.9,51.0,30.26,SSW,193,0.0,-999.0,95,-99.99,,,0.00,weatherlink.com 1.10,2013-01-13 01:36:00,
2013-01-12 20:51:00,51.5,50.0,30.26,SSW,193,0.0,-999.0,95,-99.99,,,0.00,weatherlink.com 1.10,2013-01-13 01:51:00,
2013-01-12 21:06:00,51.5,50.0,30.26,SSW,193,0.0,-999.0,96,-99.99,,,0.00,weatherlink.com 1.10,2013-01-13 02:06:00,
2013-01-12 21:21:00,51.5,50.0,30.25,SSW,193,0.0,-999.0,96,-99.99,,,0.00,weatherlink.com 1.10,2013-01-13 02:21:00,
2013-01-12 21:36:00,51.5,50.0,30.26,SSW,193,0.0,-999.0,96,-99.99,,,0.00,weatherlink.com 1.10,2013-01-13 02:36:00,
2013-01-12 21:51:00,51.4,50.0,30.26,SSW,193,0.0,-999.0,96,-99.99,,,0.00,weatherlink.com 1.10,2013-01-13 02:51:00,
2013-01-12 22:06:00,51.6,51.0,30.25,SSW,193,0.0,-999.0,96,-99.99,,,0.00,weatherlink.com 1.10,2013-01-13 03:06:00,
2013-01-12 22:21:00,51.6,51.0,30.25,SSW,193,0.0,-999.0,96,-99.99,,,0.00,weatherlink.com 1.10,2013-01-13 03:21:00,
2013-01-12 22:36:00,51.1,50.0,30.25,SSW,193,0.0,-999.0,96,-99.99,,,0.00,weatherlink.com 1.10,2013-01-13 03:36:00,
2013-01-12 22:51:00,50.6,50.0,30.25,SSW,193,0.0,-999.0,96,-99.99,,,0.00,weatherlink.com 1.10,2013-01-13 03:51:00,
2013-01-12 23:06:00,50.4,49.0,30.25,SSW,193,0.0,-999.0,96,-99.99,,,0.00,weatherlink.com 1.10,2013-01-13 04:06:00,
2013-01-12 23:21:00,50.4,49.0,30.25,SSW,193,0.0,-999.0,96,-99.99,,,0.00,weatherlink.com 1.10,2013-01-13 04:21:00,
2013-01-12 23:36:00,50.5,50.0,30.25,SSW,193,0.0,-999.0,97,-99.99,,,0.00,weatherlink.com 1.10,2013-01-13 04:36:00,
2013-01-12 23:51:00,50.7,50.0,30.25,SSW,193,0.0,-999.0,97,-99.99,,,0.00,weatherlink.com 1.10,2013-01-13 04:51:00,